DL2AKT-13 Weather Reports


Display with metric or nautical units.
time (UTC)temp
F
wind
direction
speed
MPH
gust
MPH
rain 1hr
in
rain 24hr
in
rain mn
in
humidity
%
barometer
mb
20260507071521 47 317 0.0 6.0 0.06 0.54 0.51 93 1009.6
20260507070016 47 316 1.0 4.0 0.06 0.53 0.50 93 1009.5
20260507064514 47 323 1.0 4.0 0.08 0.51 0.48 93 1009.4
20260507063012 47 319 1.0 4.0 0.11 0.50 0.47 93 1009.2
20260507061512 47 319 0.0 6.0 0.13 0.49 0.46 93 1009.1
20260507060017 47 320 1.0 6.0 0.14 0.46 0.43 93 1008.9
20260507054506 47 311 1.0 7.0 0.15 0.43 0.39 93 1008.7
20260507053005 47 329 1.0 7.0 0.15 0.40 0.36 92 1008.5
20260507051502 47 333 1.0 8.0 0.13 0.36 0.32 92 1008.4
20260507050100 47 325 1.0 7.0 0.12 0.32 0.28 92 1008.2
20260507044559 47 313 1.0 9.0 0.11 0.28 0.24 92 1008.1
20260507043046 47 310 0.0 4.0 0.09 0.25 0.21 92 1008.0
20260507041557 47 326 0.0 8.0 0.09 0.23 0.19 92 1007.8
20260507040044 47 326 1.0 6.0 0.11 0.20 0.16 92 1007.6
20260507034539 47 325 1.0 12.0 0.10 0.17 0.13 92 1007.5
20260507033038 48 323 1.0 5.0 0.09 0.16 0.12 92 1007.4
20260507031539 49 327 0.0 5.0 0.09 0.13 0.09 92 1007.2
20260507030032 49 344 0.0 4.0 0.03 0.08 0.04 92 1007.2
20260507024535 49 334 0.0 7.0 0.02 0.07 0.03 92 1007.1
20260507023028 49 315 1.0 8.0 0.02 0.06 0.02 92 1007.1
20260507021533 50 317 1.0 6.0 0.00 0.05 0.01 92 1006.9
20260507020024 50 318 0.0 7.0 0.00 0.05 0.01 91 1006.8
20260507014521 51 321 1.0 6.0 0.00 0.05 0.01 91 1006.7
20260507013021 51 325 1.0 4.0 0.00 0.05 0.01 91 1006.6
20260507011521 52 327 0.0 1.0 0.00 0.05 0.01 91 1006.6
20260507010023 52 327 0.0 0.0 0.00 0.05 0.01 91 1006.6
20260507004516 52 327 0.0 0.0 0.00 0.06 0.01 91 1006.6
20260507003014 52 327 0.0 0.0 0.00 0.06 0.01 91 1006.6
20260507001515 52 327 0.0 0.0 0.00 0.06 0.01 91 1006.6
20260507000012 52 327 0.0 0.0 0.00 0.06 0.01 91 1006.5
20260506234511 52 327 0.0 0.0 0.00 0.07 0.01 91 1006.6
20260506233010 52 327 0.0 0.0 0.01 0.07 0.01 91 1006.5
20260506231510 52 327 0.0 0.0 0.01 0.07 0.01 90 1006.5
20260506230007 52 327 0.0 0.0 0.01 0.07 0.01 90 1006.1
20260506224506 52 327 0.0 0.0 0.00 0.11 0.00 90 1006.2
20260506223005 52 327 0.0 0.0 0.00 0.11 0.00 90 1006.3
20260506221505 52 327 0.0 0.0 0.01 0.11 0.00 90 1006.2
20260506220002 52 327 0.0 0.0 0.01 0.11 0.00 89 1006.0
20260506214602 52 327 0.0 0.0 0.01 0.20 0.11 89 1006.2
20260506213101 53 327 0.0 0.0 0.02 0.20 0.11 88 1006.1
20260506211559 53 327 0.0 0.0 0.02 0.20 0.11 87 1006.1
20260506210058 54 327 0.0 0.0 0.01 0.20 0.10 86 1006.0
20260506204558 54 327 0.0 0.0 0.01 0.47 0.10 85 1006.0
20260506203055 54 327 0.0 0.0 0.00 0.46 0.09 84 1005.9
20260506201555 54 327 0.0 0.0 0.00 0.46 0.09 84 1005.8
20260506200054 54 327 0.0 0.0 0.00 0.46 0.09 83 1005.7
20260506194552 54 327 1.0 4.0 0.00 0.76 0.09 82 1005.6
20260506193054 55 349 0.0 4.0 0.00 0.76 0.09 82 1005.3
20260506191550 55 313 0.0 2.0 0.00 0.76 0.09 82 1005.1
20260506190047 55 311 0.0 0.0 0.00 0.76 0.09 81 1004.8
20260506184546 55 311 0.0 0.0 0.00 0.77 0.09 80 1004.6
20260506183044 55 311 0.0 0.0 0.00 0.77 0.09 79 1004.3
20260506181557 55 311 0.0 0.0 0.00 0.77 0.09 79 1004.2
20260506180044 56 311 0.0 1.0 0.00 0.77 0.09 79 1004.3
20260506174542 56 311 0.0 2.0 0.00 0.77 0.09 78 1004.4
20260506173105 57 311 0.0 6.0 0.00 0.77 0.09 77 1004.3
20260506171543 58 348 0.0 0.0 0.00 0.77 0.09 77 1003.9
20260506170100 58 348 0.0 0.0 0.00 0.77 0.09 75 1003.9
20260506164541 58 348 0.0 4.0 0.00 0.77 0.09 74 1003.7
20260506163051 57 348 3.0 7.0 0.00 0.77 0.09 75 1003.8
20260506161541 57 352 2.0 9.0 0.00 0.77 0.09 78 1004.1
20260506160042 57 334 2.0 10.0 0.02 0.77 0.09 79 1003.9
20260506154547 58 359 0.0 4.0 0.02 0.77 0.09 79 1003.8
20260506153037 58 359 0.0 0.0 0.02 0.77 0.09 80 1003.7
20260506151537 59 359 2.0 8.0 0.02 0.77 0.09 78 1003.7
20260506150037 62 333 6.0 12.0 0.00 0.76 0.08 71 1003.7
20260506144542 63 193 2.0 8.0 0.00 0.76 0.08 64 1003.6
20260506143035 63 175 0.0 2.0 0.00 0.76 0.08 65 1003.7
20260506141534 63 175 0.0 6.0 0.00 0.76 0.08 64 1003.7
20260506140036 62 173 4.0 8.0 0.00 0.76 0.08 66 1003.8
20260506134532 62 186 3.0 8.0 0.00 0.76 0.08 69 1003.9
20260506133039 62 195 1.0 9.0 0.00 0.76 0.08 66 1003.9
20260506131533 62 188 2.0 8.0 0.00 0.76 0.08 65 1004.0
20260506130035 63 201 4.0 9.0 0.00 0.76 0.08 65 1003.9
20260506124530 63 206 3.0 10.0 0.00 0.76 0.08 65 1004.0
20260506123029 64 189 1.0 7.0 0.00 0.76 0.08 63 1004.0
20260506121529 64 192 3.0 8.0 0.00 0.76 0.08 66 1004.0
20260506120028 63 217 3.0 7.0 0.00 0.76 0.08 66 1004.2
20260506114529 64 230 7.0 12.0 0.00 0.76 0.08 62 1004.0
20260506113025 64 182 0.0 10.0 0.00 0.76 0.08 67 1004.0
20260506111523 63 221 5.0 13.0 0.00 0.76 0.08 67 1004.1
20260506110021 62 255 2.0 9.0 0.00 0.76 0.08 68 1004.1
20260506104539 61 318 2.0 8.0 0.00 0.76 0.08 71 1004.1
20260506103016 61 201 1.0 14.0 0.00 0.76 0.08 70 1004.3
20260506101512 60 173 7.0 15.0 0.00 0.76 0.08 73 1004.5
20260506100011 60 196 7.0 12.0 0.00 0.76 0.08 72 1004.6
20260506094507 59 176 5.0 11.0 0.00 0.76 0.08 76 1004.4
20260506093006 58 163 5.0 10.0 0.00 0.76 0.08 76 1004.3
20260506091506 58 197 7.0 12.0 0.00 0.76 0.08 76 1004.3
20260506090005 58 203 1.0 9.0 0.00 0.76 0.08 77 1004.1
20260506084506 57 193 2.0 10.0 0.00 0.76 0.08 79 1004.1
20260506083006 57 203 2.0 12.0 0.00 0.76 0.08 79 1004.1
20260506081504 58 193 5.0 10.0 0.00 0.76 0.08 79 1003.8
20260506080116 57 218 1.0 9.0 0.00 0.76 0.08 83 1003.8
20260506073055 57 207 2.0 9.0 0.00 0.76 0.08 85 1003.7